STARLINK-5246 (54198 NORAD) Tracking and Keplerian Element Data

This shows tracking and keplerian element data for the satellite.

Feedback or suggestion? Click here.




ElementValue
Catalog54198
NameSTARLINK-5246
Epoch Orbit130
Epoch Day324.91667824
Epoch Year2022
RAAN25.7311
Inclination53.2183
Eccentricity0.0002815
Argument of Perigee20.3514
Mean Anonmoly285.944
Mean Motion15.73215246
Decay Rate-0.0008862
L11 54198U 22141AT 22324.91667824 -.00088620 00000+0 -63308-3 0 9991
L22 54198 53.2183 25.7311 0002815 20.3514 285.9440 15.73215246 1303



Live tracking and technical data element details for STARLINK-5246 (NORAD 54198). STARLINK-5246 can be tracked NOW for your location showing map with azimuth and elevation plus other details from your city location.







IsCatalogInMostPopularTable: catalog: 54198, numindb: 4
Update: records affected: 1



GetName: 54198 STARLINK-5246

Hit Count: updated at: Mon, 28 Nov 2022 22:23:03 GMT